This is the latest recevied weather packets stored in our database for station/object KD9CCP. If no packets are shown the sender has not sent any weather packets the latest 10 day(s).
| Time | Temp. | Humidity | Pressure | Rain* | Wind** | Luminosity | Snow |
|---|---|---|---|---|---|---|---|
| 1777485426 | 6.11° C | 75% | 1016.6 hPa | 0 mm | - | 47 W/m² | - |
| 1777485122 | 6.11° C | 74% | 1016.7 hPa | 0 mm | - | 43 W/m² | - |
| 1777484820 | 6.11° C | 77% | 1016.9 hPa | 0 mm | - | 37 W/m² | - |
| 1777484516 | 6.11° C | 74% | 1016.8 hPa | 0 mm | - | 37 W/m² | - |
| 1777484213 | 6.11° C | 75% | 1016.9 hPa | 0 mm | - | 40 W/m² | - |
| 1777483909 | 6.11° C | 76% | 1017 hPa | 0 mm | - | 43 W/m² | - |
| 1777483605 | 6.11° C | 76% | 1016.7 hPa | 0 mm | - | 42 W/m² | - |
| 1777483300 | 6.11° C | 76% | 1016.8 hPa | 0 mm | - | 47 W/m² | - |
| 1777482997 | 5.56° C | 74% | 1016.9 hPa | 0 mm | - | 67 W/m² | - |
| 1777482693 | 6.11° C | 76% | 1016.9 hPa | 0 mm | - | 85 W/m² | - |
| 1777482390 | 5.56° C | 77% | 1017.4 hPa | 0 mm | - | 139 W/m² | - |
| 1777482087 | 6.11° C | 77% | 1017.1 hPa | 0 mm | - | 91 W/m² | - |
| 1777481786 | 5.56° C | 77% | 1017.1 hPa | 0 mm | - | 50 W/m² | - |
| 1777481482 | 5.56° C | 79% | 1017.1 hPa | 0 mm | - | 41 W/m² | - |
| 1777481178 | 5.56° C | 79% | 1017 hPa | 0 mm | - | 52 W/m² | - |
| 1777480875 | 5.56° C | 78% | 1017.4 hPa | 0 mm | - | 69 W/m² | - |
| 1777480572 | 5.56° C | 79% | 1017.4 hPa | 0 mm | - | 58 W/m² | - |
| 1777480269 | 5.56° C | 80% | 1017.5 hPa | 0 mm | - | 50 W/m² | - |
| 1777479964 | 5.56° C | 79% | 1017.6 hPa | 0 mm | - | 74 W/m² | - |
| 1777479661 | 5.56° C | 80% | 1017.5 hPa | 0 mm | - | 72 W/m² | - |
| 1777479360 | 5.56° C | 83% | 1017.4 hPa | 0 mm | - | 115 W/m² | - |
| 1777479055 | 5.56° C | 84% | 1017.6 hPa | 0 mm | - | 101 W/m² | - |
| 1777478752 | 5.56° C | 82% | 1017.6 hPa | 0 mm | - | 54 W/m² | - |
| 1777478449 | 5.56° C | 85% | 1017.6 hPa | 0 mm | - | 45 W/m² | - |
| 1777478145 | 5° C | 84% | 1017.6 hPa | 0 mm | - | 46 W/m² | - |
* Rain latest hour (hover to see other rain measurements)
** Current wind speed in m/s (hover to see current wind gust speed)